Sheriff Indiana Allen County Courthouse Allen County Sheriff's Department - Ken Fries, Sheriff | Allen County, Indiana
Sheriff Ken Fries

Activity Logs

Activity Log for July 29, 2013

Back to List of Log Dates


Incident Time Nature Address
13A033789 00:02:48 101 Open Door 95xx Shoals Dr
13A033790 00:17:24 15,84 Ass Urgen 42xx Lafayette St S
13A033791 00:25:35 101 Open Door 7xx Wyss Ridge Dr
13A033792 00:35:37 30 Traffic Stop 163xx Amstutz Rd & Schlatter Rd
13A033793 00:44:01 1 Meet 111xx Parkview Plaza Dr
13A033794 02:33:14 48 Suspicious 155xx Sr 1 & Lochner Rd
13A033795 02:54:02 33 Disabled Veh 167xx Old Us 24 E & Webster Rd N
13A033796 03:07:18 96 Battery 51xx Westcounty Line Rd N
13A033797 03:17:15 123 Leo/cedarvi 150xx Sr 1
13A033798 03:42:21 129 10xx Amber Willow Way
13A033799 04:42:28 30 Traffic Stop 73xx Adams Center Rd & Tillman Rd
13A033800 04:50:41 911 Hang Up 90xx Conservation Way
13A033801 05:13:34 25 Pd Accident 163xx Zubrick Rd & Yoder Rd W
13A033802 06:17:46 30 Traffic Stop 102xx Marion Center Rd & I 469 Nb
13A033803 06:23:01 25 Pd Accident 107xx Us 27 S
13A033804 06:28:09 11 Pick Up Pris 13xx Minnich Rd
13A033805 07:27:05 63 Contact 53xx Kruse Dr
13A033806 07:27:52 11 Pick Up Pris 1 Oc
13A033807 07:50:50 11 Pick Up Pris 6xx Berry St W
13A033808 08:21:46 80p Serving Po 51xx Stonehedge Blvd
13A033809 08:32:26 14s Serving War 4xx Lincoln Hwy E
13A033810 08:36:40 39r Stolen Reco 78xx Fritz Rd
13A033811 08:45:53 30 Traffic Stop 43xx Brook Hollow Dr & Aboite Cent
13A033812 08:50:48 14s Serving War 30xx Pennsylvania St
13A033813 08:55:35 38 Lost/stolen 144xx Sr 1
13A033814 08:58:58 11 Pick Up Pris 7xx Broadway
13A033815 09:00:05 18 Work Traffic 94xx Mayhew Rd
13A033816 09:15:07 14s Serving War 21xx Oakley St
13A033817 09:19:15 50,attempted 8xx Manck Dr
13A033818 09:20:53 14s Serving War 37xx Sleepy Hollow Ln
13A033819 09:25:33 80p Serving Po 72xx Old Trail Rd
13A033820 09:42:27 16,97 14xx Gateway Trl
13A033821 10:06:41 14s Serving War 51xx Stonehedge Blvd
13A033822 10:10:05 80 Civil Invest 116xx Yoder Rd W
13A033823 10:25:31 15 Assist 25xx Fox Ave & Grace Ave
13A033824 10:25:48 25 Pd Accident 113xx Nightingale Cv
13A033825 10:28:23 40 Alarm 103xx Clinton St N
13A033826 10:30:50 14s Serving War 34xx Jefferson Blvd W
13A033827 10:45:06 14s Serving War 5xx Pinegrove Ln
13A033828 10:50:47 80p Serving Po 16xx Fletcher Ave
13A033829 10:54:02 14s Serving War 36xx Holton Ave
13A033830 10:55:54 30 Traffic Stop 17xx Maumee Ave & Anthony Blvd S
13A033831 11:03:53 14s Serving War 5xx Birchtree Ln
13A033832 11:17:16 14s Serving War 5xx Dewald St E
13A033833 11:26:31 51,attempted 164xx Willow Ridge Trl
13A033834 11:30:24 27 Reckless Dri 25xx I 469 Sb
13A033835 11:32:04 50 Burglary 102xx Thimlar Rd
13A033836 11:36:50 911 Hang Up 29xx Kroemer Rd
13A033837 11:42:12 11 Pick Up Pris 111xx Parkview Circle
13A033838 11:45:19 63 Contact 4xx Mulberry St
13A033839 11:48:19 111c Cat 6xx Main St
13A033840 11:51:51 111c Cat 118xx Sonata Dr
13A033841 11:56:21 51 Theft 101xx Valley Hills Ln
13A033842 11:56:41 30 Traffic Stop 321xx I 69 Nb
13A033843 12:16:35 30 Traffic Stop 56xx Yohne Rd & Smith Rd
13A033844 12:23:25 80p Serving Po 8xx Prospect Ave
13A033845 12:28:15 102 Threats 146xx Amstutz Rd
13A033846 12:28:47 48 Suspicious 62xx Smith Rd
13A033847 12:31:34 122 Huntertown 150xx Old Lima Rd
13A033848 12:34:22 80p Serving Po 15xx Ventura Ln
13A033849 12:40:50 35 Parked Vehic 6xx Harbor Walk Dr
13A033850 12:45:25 80p Serving Po 48xx Reed St
13A033851 12:53:25 108 Followup 18xx Till Rd W
13A033852 13:01:20 14s Serving War 28xx Lincolndale Ave
13A033853 13:03:23 48 Suspicious 22xx I 469 Nb
13A033854 13:33:56 30 Traffic Stop 5xx I 469 Sb
13A033855 13:34:18 14s Serving War 9xx Hollyhill Dr
13A033856 13:35:42 17 Motor Check 134xx Hurshtown Rd
13A033857 13:37:26 30 Traffic Stop 73xx Lafayette St S & Tillman Rd E
13A033858 13:41:32 33 Disabled Veh 162xx Lima Rd & Cedar Canyons Rd W
13A033859 13:42:07 80p Serving Po 5xx Fifth St
13A033860 13:43:44 80p Serving Po 40xx Barr St S
13A033861 13:45:25 80 Civil Invest 121xx Chesterbrook Ct
13A033862 13:54:29 14s Serving War 83xx Lakeside Ct
13A033863 13:56:33 80p Serving Po 16xx Fletcher Ave
13A033864 14:04:17 14s Serving War 44xx Anthony Blvd S
13A033865 14:05:54 30 Traffic Stop 81xx Ardmore Ave & Airport Express
13A033866 14:10:16 80p Serving Po 10xx Lillian Ave
13A033867 14:14:33 14s Serving War 35xx Robinwood Dr
13A033868 14:19:57 14s Serving War 5xx Suttenfield Ave E
13A033869 14:20:59 103 Unwanted 103xx Old Leo Rd
13A033870 14:27:00 30 Traffic Stop 315xx I 69 Nb
13A033871 14:43:43 14s Serving War 56xx River Run Trl
13A033872 14:46:47 14s Serving War 28xx Harrison St S
13A033873 14:48:06 30 Traffic Stop 309xx I 69 Sb
13A033874 14:52:28 17 Motor Check 71xx Tillman Rd E
13A033875 14:55:07 14s Serving War 1xx Berry St W
13A033876 15:01:02 33 Disabled Veh 306xx I 69 Nb
13A033878 15:01:44 80p Serving Po 48xx Bull Rapids Rd
13A033877 15:10:56 80p Serving Po 4xx Dunnwood Dr
13A033879 15:14:16 15 Assist 40xx Sr 1 & Diebold Rd
13A033880 15:21:36 30 Traffic Stop 118xx Indianapolis Rd & Coverdale
13A033881 15:23:13 911 Hang Up 69xx Gettysburg Way
13A033882 15:23:59 80p Serving Po 18xx Glenwood Ave
13A033883 15:34:16 30 Traffic Stop 150xx Towne Gardens Dr
13A033884 15:42:32 108 Followup 92xx Schlatter Rd
13A033885 15:45:21 108 Followup 1 Main St E
13A033886 15:51:50 111c Cat 122xx Indianapolis Rd
13A033887 15:52:55 47 Remove Items 181xx Doty Rd
13A033888 15:53:13 911 Hang Up 103xx Valley Hills Ln
13A033889 16:01:08 43 Disturbance 43xx Starboard Dr
13A033890 16:02:36 111d Dog 212xx Ward Rd
13A033891 16:10:22 33 Disabled Veh 135xx Lafayette Center Rd & Fogwel
13A033892 16:34:59 30 Traffic Stop 108xx Homestead Rd & Lower Hunting
13A033893 16:40:44 111c Cat 118xx Sonata Dr
13A033894 16:41:28 111d Dog 160xx Bayview Blvd
13A033895 16:51:36 30 Traffic Stop 70xx Ardmore Ave
13A033896 16:54:23 51 Theft 69xx Hursh Rd & Puff Rd
13A033897 16:58:22 80p Serving Po 46xx Norarrow Dr
13A033898 17:00:53 109 Dumping 105xx Sampson Rd S
13A033899 17:07:03 108 Followup 103xx Valley Hills Ln
13A033900 17:10:56 30 Traffic Stop 79xx Seiler Rd
13A033901 17:25:25 26 Pi Accident 116xx St Joe Rd & Halter Rd
13A033902 17:38:13 30 Traffic Stop 120xx Grabill Rd & Klopfenstein Rd
13A033903 17:39:21 14s Serving War 42xx Buell Dr
13A033904 18:05:02 30 Traffic Stop 144xx Sr 1
13A033905 18:05:47 30 Traffic Stop 118xx Minnich Rd & Monroeville Rd
13A033906 18:13:27 101 Open Door 100xx Echo Valley Dr
13A033907 18:15:24 30 Traffic Stop 108xx Tillman Rd E & Minnich Rd
13A033908 18:16:20 14s Serving War 9xx Northcrest Shopping Ctr
13A033909 18:21:53 15 Assist 58xx Anthony Blvd S
13A033910 18:22:57 30 Traffic Stop 16xx Lower Huntington Rd & Montere
13A033911 18:32:37 1 Meet 103xx Old Leo Rd
13A033912 18:33:20 14s Serving War 5xx Royalton Dr
13A033913 18:37:29 50 Burglary 97xx Foraker Dr
13A033914 18:42:48 30 Traffic Stop 88xx Bluffton Rd & Dunkelberg Rd
13A033915 18:47:49 911 Hang Up 7xx Ansley Dr
13A033916 18:48:50 14s Serving War 31xx Doyle Rd S
13A033917 18:50:05 30 Traffic Stop 72xx Knightswood Dr & Pacific Dr
13A033918 19:04:19 17 Motor Check 192xx Mcnabb Rd
13A033919 19:09:16 30 Traffic Stop 62xx Paulding Rd E & Adams Center
13A033920 19:13:58 14s Serving War 85xx Young Rd
13A033921 19:46:08 30 Traffic Stop 155xx Sr 1 & Lochner Rd
13A033922 19:53:42 25 Pd Accident 118xx Hood St
13A033923 20:12:14 Ems 121xx Firekat Cv
13A033924 20:24:22 111 Animal Inve 151xx Bluffton Rd & Blair Rd
13A033925 20:25:39 30 Traffic Stop 318xx I 69 Nb
13A033926 20:46:14 50jo 144xx Springfield Center Rd
13A033927 20:48:42 Ems 306xx I 69 Sb
13A033928 20:51:49 14s Serving War 97xx Knoll Creek Cv
13A033930 21:06:42 911 Hang Up 124xx Doty Rd
13A033931 21:21:19 14s Serving War 35xx Harris Rd
13A033936 21:23:58 27 Reckless Dri 107xx Eagle River Run & Endicott D
13A033932 21:32:50 14s Serving War 5xx Royalton Dr
13A033933 21:33:50 108 Followup 1 Main St E
13A033934 21:38:04 Ems 164xx Claystone Ct
13A033935 21:39:31 33 Disabled Veh 109xx Tillman Rd E & Minnich Rd
13A033937 21:42:53 26 Pi Accident 78xx Washington Center Rd W & O Da
13A033938 21:56:07 46 Domestic 91xx Ridgetree Dr
13A033939 22:09:27 911 Hang Up 9xx Pluma Ave
13A033940 22:12:44 911 Hang Up 4xx Madge Ave
13A033941 22:18:41 14s Serving War 22xx Hoagland Ave
13A033942 22:21:13 Test Law 143xx Roth Rd
13A033943 22:24:05 Test Law 5xx Madge Ave
13A033944 22:31:20 14s Serving War 83xx Bridgeway Cir
13A033945 22:32:25 30 Traffic Stop 134xx Fairview Dr & Second St
13A033946 22:41:01 Ems Xx Surrey Ln
13A033947 22:52:36 30 Traffic Stop 88xx Winchester Rd & Dunkelberg Rd
13A033948 22:57:15 108 Followup 118xx Maple St
13A033949 23:04:23 48,36 111xx Tangle Trl
13A033950 23:17:36 1 Meet 101xx Wheatfield Ln
13A033951 23:32:27 1 Meet 105xx Willow Creek Dr
13A033952 23:40:51 43 Disturbance 159xx Timberwillow Dr
13A033953 23:47:37 43 Disturbance 107xx Us 27 S
13A033954 23:48:57 911 Hang Up 79xx Amber Rd
13A033955 23:54:51 33,34 114xx Auburn Rd & Autumn Tree Dr